Location: Chiroubles
(46.1812°N, 4.6660°E)
Time: 11:55:05
(UTC+00:00)

N. Korean satellite - Pass Details

Date: 01 November 2020
Orbit: 453 x 503 km, 97.2° (Epoch: 03 December)

Event Time Altitude Azimuth Distance (km) Brightness Sun altitude
Rises 04:46:09 0° 21° (NNE) 2,478 10.4 -17.1°
Reaches altitude 10° 04:48:20 10° 31° (NNE) 1,599 9.5 -16.7°
Maximum altitude 04:51:27 33° 97° (E) 792 8.4 -16.2°
Drops below altitude 10° 04:54:34 10° 163° (SSE) 1,591 9.4 -15.7°
Sets 04:56:44 0° 173° (S) 2,464 10.3 -15.3°
